Retour au catalogue

POSAT 1

ActifScienceSSO
NORAD 22829·PAYLOAD·🇵🇹 Portugal

Lancé Sep 26, 1993 depuis Guiana Space Centre

Loading…

Prochains Passages (prochaines 24 heures)

TLE

FraisSource: Space-Track

Époque: Sep 14, 2026, 10:48 UTC

1 22829U 93061G   26257.45067649  .00000063  00000-0  40197-4 0  9999
2 22829  98.6575 324.3756 0010671 123.8402 236.3799 14.31937393720821

Suivez POSAT 1 en temps réel avec AllMySat

Download on the App Store